Time,TemperatureF,DewpointF,PressureIn,WindDirection,WindDirectionDegrees,WindSpeedMPH,WindSpeedGustMPH,Humidity,HourlyPrecipIn,Conditions,Clouds,dailyrainin,SoftwareType,DateUTC
2013-11-13 00:00:00,54.7,43.1,30.21,NNE,23,0.4,1.8,65,0.00,,,0.00,WUHU216HW,2013-11-13 05:00:00,
2013-11-13 00:05:00,54.5,43.0,30.22,ENE,68,2.2,2.5,65,0.00,,,0.00,WUHU216HW,2013-11-13 05:05:00,
2013-11-13 00:10:00,54.4,41.6,30.22,NE,45,5.6,6.7,62,0.00,,,0.00,WUHU216HW,2013-11-13 05:10:00,
2013-11-13 00:15:00,54.2,40.1,30.23,NNE,23,5.6,7.4,59,0.00,,,0.00,WUHU216HW,2013-11-13 05:15:00,
2013-11-13 00:20:00,53.6,38.7,30.24,ENE,68,6.0,7.4,57,0.00,,,0.00,WUHU216HW,2013-11-13 05:20:00,
2013-11-13 00:25:00,52.9,38.1,30.24,NE,45,4.0,6.3,57,0.00,,,0.00,WUHU216HW,2013-11-13 05:25:00,
2013-11-13 00:30:00,52.6,37.7,30.24,NE,45,4.7,7.4,57,0.00,,,0.00,WUHU216HW,2013-11-13 05:30:00,
2013-11-13 00:35:00,52.0,37.6,30.25,NNE,23,3.1,7.6,58,0.00,,,0.00,WUHU216HW,2013-11-13 05:35:00,
2013-11-13 00:40:00,51.5,37.1,30.25,North,0,6.3,7.6,58,0.00,,,0.00,WUHU216HW,2013-11-13 05:40:00,
2013-11-13 00:45:00,50.9,37.1,30.25,NNE,23,6.0,6.3,59,0.00,,,0.00,WUHU216HW,2013-11-13 05:45:00,
2013-11-13 00:50:00,50.8,37.4,30.26,NNE,23,2.5,8.3,60,0.00,,,0.00,WUHU216HW,2013-11-13 05:50:00,
2013-11-13 00:55:00,50.2,36.9,30.26,NE,45,3.6,8.3,60,0.00,,,0.00,WUHU216HW,2013-11-13 05:55:00,
2013-11-13 01:00:00,50.0,37.1,30.26,North,0,2.5,8.1,61,0.00,,,0.00,WUHU216HW,2013-11-13 06:00:00,
2013-11-13 01:05:00,49.9,37.0,30.26,NE,45,3.8,5.8,61,0.00,,,0.00,WUHU216HW,2013-11-13 06:05:00,
2013-11-13 01:10:00,49.7,37.2,30.27,North,0,2.0,5.8,62,0.00,,,0.00,WUHU216HW,2013-11-13 06:10:00,
2013-11-13 01:15:00,49.3,36.8,30.27,North,0,2.5,5.6,62,0.00,,,0.00,WUHU216HW,2013-11-13 06:15:00,
2013-11-13 01:20:00,49.1,36.7,30.27,NNE,23,2.5,3.8,62,0.00,,,0.00,WUHU216HW,2013-11-13 06:20:00,
2013-11-13 01:25:00,48.6,36.2,30.27,North,0,3.8,4.0,62,0.00,,,0.00,WUHU216HW,2013-11-13 06:25:00,
2013-11-13 01:30:00,48.4,36.0,30.28,ENE,68,4.0,4.7,62,0.00,,,0.00,WUHU216HW,2013-11-13 06:30:00,
2013-11-13 01:35:00,48.2,35.8,30.28,North,0,1.8,4.7,62,0.00,,,0.00,WUHU216HW,2013-11-13 06:35:00,
2013-11-13 01:40:00,47.9,35.9,30.28,NNE,23,4.3,4.3,63,0.00,,,0.00,WUHU216HW,2013-11-13 06:40:00,
2013-11-13 01:45:00,47.7,35.7,30.29,NE,45,3.4,6.9,63,0.00,,,0.00,WUHU216HW,2013-11-13 06:45:00,
2013-11-13 01:50:00,47.5,35.6,30.29,North,0,2.0,6.9,63,0.00,,,0.00,WUHU216HW,2013-11-13 06:50:00,
2013-11-13 01:55:00,47.2,35.2,30.29,NNE,23,1.3,4.0,63,0.00,,,0.00,WUHU216HW,2013-11-13 06:55:00,
2013-11-13 02:00:00,47.0,35.4,30.29,NNE,23,3.4,3.6,64,0.00,,,0.00,WUHU216HW,2013-11-13 07:00:00,
2013-11-13 02:05:00,46.8,35.2,30.30,NNE,23,2.5,4.3,64,0.00,,,0.00,WUHU216HW,2013-11-13 07:05:00,
2013-11-13 02:10:00,46.4,35.3,30.30,NNE,23,2.5,4.9,65,0.00,,,0.00,WUHU216HW,2013-11-13 07:10:00,
2013-11-13 02:15:00,46.4,35.3,30.30,North,0,2.9,4.9,65,0.00,,,0.00,WUHU216HW,2013-11-13 07:15:00,
2013-11-13 02:20:00,46.4,35.3,30.30,North,0,2.0,4.9,65,0.00,,,0.00,WUHU216HW,2013-11-13 07:20:00,
2013-11-13 02:25:00,46.3,35.5,30.30,NNE,23,2.9,4.0,66,0.00,,,0.00,WUHU216HW,2013-11-13 07:25:00,
2013-11-13 02:30:00,46.1,35.4,30.30,ENE,68,2.7,4.0,66,0.00,,,0.00,WUHU216HW,2013-11-13 07:30:00,
2013-11-13 02:35:00,45.9,35.2,30.30,NNE,23,1.3,2.7,66,0.00,,,0.00,WUHU216HW,2013-11-13 07:35:00,
2013-11-13 02:40:00,45.7,35.4,30.31,NNE,23,3.8,3.8,67,0.00,,,0.00,WUHU216HW,2013-11-13 07:40:00,
2013-11-13 02:45:00,45.4,35.0,30.30,NE,45,2.2,7.2,67,0.00,,,0.00,WUHU216HW,2013-11-13 07:45:00,
2013-11-13 02:50:00,45.0,34.7,30.30,NE,45,2.5,7.2,67,0.00,,,0.00,WUHU216HW,2013-11-13 07:50:00,
2013-11-13 02:55:00,44.8,34.9,30.31,ENE,68,3.1,5.8,68,0.00,,,0.00,WUHU216HW,2013-11-13 07:55:00,
2013-11-13 03:00:00,44.6,34.8,30.31,NNE,23,3.8,6.3,68,0.00,,,0.00,WUHU216HW,2013-11-13 08:00:00,
2013-11-13 03:05:00,44.5,34.6,30.31,NNE,23,2.5,6.3,68,0.00,,,0.00,WUHU216HW,2013-11-13 08:05:00,
2013-11-13 03:10:00,44.3,34.4,30.31,NE,45,6.3,6.5,68,0.00,,,0.00,WUHU216HW,2013-11-13 08:10:00,
2013-11-13 03:15:00,44.1,34.6,30.32,NNE,23,3.1,6.5,69,0.00,,,0.00,WUHU216HW,2013-11-13 08:15:00,
2013-11-13 03:20:00,43.9,34.8,30.32,NE,45,3.6,4.3,70,0.00,,,0.00,WUHU216HW,2013-11-13 08:20:00,
2013-11-13 03:25:00,43.7,34.3,30.32,NNE,23,2.2,3.6,69,0.00,,,0.00,WUHU216HW,2013-11-13 08:25:00,
2013-11-13 03:30:00,43.6,34.5,30.32,NNE,23,4.3,4.5,70,0.00,,,0.00,WUHU216HW,2013-11-13 08:30:00,
2013-11-13 03:35:00,43.6,34.5,30.32,ENE,68,4.3,7.4,70,0.00,,,0.00,WUHU216HW,2013-11-13 08:35:00,
2013-11-13 03:40:00,43.4,34.3,30.32,NNE,23,2.5,7.4,70,0.00,,,0.00,WUHU216HW,2013-11-13 08:40:00,
2013-11-13 03:45:00,43.4,34.7,30.32,NE,45,2.5,6.9,71,0.00,,,0.00,WUHU216HW,2013-11-13 08:45:00,
2013-11-13 03:50:00,43.2,34.2,30.32,NNE,23,4.0,6.0,70,0.00,,,0.00,WUHU216HW,2013-11-13 08:50:00,
2013-11-13 03:55:00,43.2,34.2,30.33,NNE,23,3.6,6.0,70,0.00,,,0.00,WUHU216HW,2013-11-13 08:55:00,
2013-11-13 04:00:00,43.2,34.5,30.32,NE,45,3.1,4.0,71,0.00,,,0.00,WUHU216HW,2013-11-13 09:00:00,
2013-11-13 04:06:00,43.2,34.5,30.33,NNE,23,1.1,4.0,71,0.00,,,0.00,WUHU216HW,2013-11-13 09:06:00,
2013-11-13 04:11:00,43.0,34.0,30.33,NE,45,7.2,7.2,70,0.00,,,0.00,WUHU216HW,2013-11-13 09:11:00,
2013-11-13 04:16:00,42.8,33.8,30.34,ENE,68,3.4,7.2,70,0.00,,,0.00,WUHU216HW,2013-11-13 09:16:00,
2013-11-13 04:21:00,42.8,33.8,30.34,ENE,68,2.2,5.6,70,0.00,,,0.00,WUHU216HW,2013-11-13 09:21:00,
2013-11-13 04:26:00,42.8,34.2,30.34,North,0,3.4,4.3,71,0.00,,,0.00,WUHU216HW,2013-11-13 09:26:00,
2013-11-13 04:31:00,42.7,34.0,30.34,NE,45,3.6,4.7,71,0.00,,,0.00,WUHU216HW,2013-11-13 09:31:00,
2013-11-13 04:36:00,42.8,34.2,30.34,ENE,68,3.1,4.7,71,0.00,,,0.00,WUHU216HW,2013-11-13 09:36:00,
2013-11-13 04:41:00,42.7,34.0,30.35,NE,45,5.1,5.1,71,0.00,,,0.00,WUHU216HW,2013-11-13 09:41:00,
2013-11-13 04:46:00,42.5,33.9,30.35,NNE,23,2.9,6.3,71,0.00,,,0.00,WUHU216HW,2013-11-13 09:46:00,
2013-11-13 04:51:00,42.3,33.3,30.35,North,0,2.9,6.3,70,0.00,,,0.00,WUHU216HW,2013-11-13 09:51:00,
2013-11-13 04:56:00,42.3,33.7,30.35,NE,45,4.7,5.4,71,0.00,,,0.00,WUHU216HW,2013-11-13 09:56:00,
2013-11-13 05:01:00,42.3,33.7,30.36,NE,45,1.8,4.7,71,0.00,,,0.00,WUHU216HW,2013-11-13 10:01:00,
2013-11-13 05:06:00,42.1,33.1,30.36,NE,45,3.8,6.5,70,0.00,,,0.00,WUHU216HW,2013-11-13 10:06:00,
2013-11-13 05:11:00,41.9,32.1,30.37,North,0,3.1,6.5,68,0.00,,,0.00,WUHU216HW,2013-11-13 10:11:00,
2013-11-13 05:16:00,41.8,32.4,30.37,NE,45,3.6,4.3,69,0.00,,,0.00,WUHU216HW,2013-11-13 10:16:00,
2013-11-13 05:21:00,41.6,31.8,30.37,NE,45,3.1,4.9,68,0.00,,,0.00,WUHU216HW,2013-11-13 10:21:00,
2013-11-13 05:26:00,41.4,31.7,30.37,NE,45,5.4,5.4,68,0.00,,,0.00,WUHU216HW,2013-11-13 10:26:00,
2013-11-13 05:31:00,41.4,31.7,30.37,NE,45,4.0,5.4,68,0.00,,,0.00,WUHU216HW,2013-11-13 10:31:00,
2013-11-13 05:36:00,41.2,31.5,30.38,NNE,23,3.1,4.3,68,0.00,,,0.00,WUHU216HW,2013-11-13 10:36:00,
2013-11-13 05:41:00,41.2,31.9,30.38,NE,45,1.8,4.3,69,0.00,,,0.00,WUHU216HW,2013-11-13 10:41:00,
2013-11-13 05:46:00,41.0,31.7,30.38,NNE,23,1.1,3.4,69,0.00,,,0.00,WUHU216HW,2013-11-13 10:46:00,
2013-11-13 05:51:00,41.0,31.7,30.39,NNE,23,1.8,2.5,69,0.00,,,0.00,WUHU216HW,2013-11-13 10:51:00,
2013-11-13 05:56:00,40.9,31.5,30.39,NNE,23,1.3,3.8,69,0.00,,,0.00,WUHU216HW,2013-11-13 10:56:00,
2013-11-13 06:01:00,40.9,31.5,30.39,NNE,23,1.6,4.7,69,0.00,,,0.00,WUHU216HW,2013-11-13 11:01:00,
2013-11-13 06:06:00,40.7,31.3,30.39,NE,45,2.2,4.7,69,0.00,,,0.00,WUHU216HW,2013-11-13 11:06:00,
2013-11-13 06:11:00,40.7,31.3,30.40,NNE,23,1.8,2.7,69,0.00,,,0.00,WUHU216HW,2013-11-13 11:11:00,
2013-11-13 06:16:00,40.7,31.3,30.40,NNE,23,2.5,3.4,69,0.00,,,0.00,WUHU216HW,2013-11-13 11:16:00,
2013-11-13 06:21:00,40.5,31.2,30.41,NNE,23,1.8,3.8,69,0.00,,,0.00,WUHU216HW,2013-11-13 11:21:00,
2013-11-13 06:26:00,40.5,31.2,30.41,North,0,0.7,4.5,69,0.00,,,0.00,WUHU216HW,2013-11-13 11:26:00,
2013-11-13 06:31:00,40.5,31.5,30.41,NNE,23,0.9,4.5,70,0.00,,,0.00,WUHU216HW,2013-11-13 11:31:00,
2013-11-13 06:36:00,40.3,31.0,30.41,NNE,23,4.0,4.0,69,0.00,,,0.00,WUHU216HW,2013-11-13 11:36:00,
2013-11-13 06:41:00,40.1,30.8,30.41,NNE,23,2.5,4.0,69,0.00,,,0.00,WUHU216HW,2013-11-13 11:41:00,
2013-11-13 06:46:00,40.0,30.6,30.42,NNE,23,1.6,3.6,69,0.00,,,0.00,WUHU216HW,2013-11-13 11:46:00,
2013-11-13 06:51:00,39.8,30.4,30.42,NE,45,2.7,4.0,69,0.00,,,0.00,WUHU216HW,2013-11-13 11:51:00,
2013-11-13 06:56:00,39.8,30.4,30.42,NE,45,1.6,4.7,69,0.00,,,0.00,WUHU216HW,2013-11-13 11:56:00,
2013-11-13 07:01:00,39.6,30.6,30.42,NNE,23,2.9,4.7,70,0.00,,,0.00,WUHU216HW,2013-11-13 12:01:00,
2013-11-13 07:06:00,39.6,30.6,30.42,NE,45,1.6,3.4,70,0.00,,,0.00,WUHU216HW,2013-11-13 12:06:00,
2013-11-13 07:11:00,39.4,30.4,30.42,NNE,23,0.4,3.4,70,0.00,,,0.00,WUHU216HW,2013-11-13 12:11:00,
2013-11-13 07:16:00,39.2,30.2,30.43,North,0,3.4,4.0,70,0.00,,,0.00,WUHU216HW,2013-11-13 12:16:00,
2013-11-13 07:21:00,38.9,29.9,30.43,NNE,23,1.6,5.1,70,0.00,,,0.00,WUHU216HW,2013-11-13 12:21:00,
2013-11-13 07:26:00,38.9,29.9,30.43,NNE,23,2.5,5.4,70,0.00,,,0.00,WUHU216HW,2013-11-13 12:26:00,
2013-11-13 07:31:00,38.7,29.8,30.43,NNE,23,2.0,5.4,70,0.00,,,0.00,WUHU216HW,2013-11-13 12:31:00,
2013-11-13 07:36:00,38.9,29.9,30.44,NNE,23,1.6,4.3,70,0.00,,,0.00,WUHU216HW,2013-11-13 12:36:00,
2013-11-13 07:41:00,38.9,29.9,30.44,NE,45,1.8,4.0,70,0.00,,,0.00,WUHU216HW,2013-11-13 12:41:00,
2013-11-13 07:46:00,39.1,29.7,30.44,North,0,2.5,4.7,69,0.00,,,0.00,WUHU216HW,2013-11-13 12:46:00,
2013-11-13 07:51:00,39.2,29.9,30.44,NNE,23,2.7,4.7,69,0.00,,,0.00,WUHU216HW,2013-11-13 12:51:00,
2013-11-13 07:56:00,39.2,29.5,30.44,North,0,1.3,4.5,68,0.00,,,0.00,WUHU216HW,2013-11-13 12:56:00,
2013-11-13 08:01:00,39.4,29.7,30.44,North,0,2.5,4.3,68,0.00,,,0.00,WUHU216HW,2013-11-13 13:01:00,
2013-11-13 08:06:00,39.2,29.1,30.44,ENE,68,1.8,5.4,67,0.00,,,0.00,WUHU216HW,2013-11-13 13:06:00,
2013-11-13 08:11:00,39.4,29.3,30.44,NNE,23,2.7,5.4,67,0.00,,,0.00,WUHU216HW,2013-11-13 13:11:00,
2013-11-13 08:16:00,39.6,29.4,30.44,NE,45,3.8,4.7,67,0.00,,,0.00,WUHU216HW,2013-11-13 13:16:00,
2013-11-13 08:21:00,40.3,29.8,30.45,NE,45,4.9,4.9,66,0.00,,,0.00,WUHU216HW,2013-11-13 13:21:00,
2013-11-13 08:26:00,41.4,30.5,30.45,NNE,23,1.8,5.4,65,0.00,,,0.00,WUHU216HW,2013-11-13 13:26:00,
2013-11-13 08:31:00,41.4,29.3,30.46,North,0,4.0,7.4,62,0.00,,,0.00,WUHU216HW,2013-11-13 13:31:00,
2013-11-13 08:36:00,40.9,28.8,30.46,ENE,68,2.5,7.4,62,0.00,,,0.00,WUHU216HW,2013-11-13 13:36:00,
2013-11-13 08:41:00,40.7,28.6,30.46,NNE,23,5.8,6.7,62,0.00,,,0.00,WUHU216HW,2013-11-13 13:41:00,
2013-11-13 08:46:00,40.5,28.9,30.46,ENE,68,3.8,6.7,63,0.00,,,0.00,WUHU216HW,2013-11-13 13:46:00,
2013-11-13 08:51:00,40.5,28.4,30.46,NNE,23,3.4,7.6,62,0.00,,,0.00,WUHU216HW,2013-11-13 13:51:00,
2013-11-13 08:56:00,40.7,28.6,30.46,ENE,68,4.3,7.6,62,0.00,,,0.00,WUHU216HW,2013-11-13 13:56:00,
2013-11-13 09:01:00,40.7,27.9,30.46,NE,45,2.9,4.9,60,0.00,,,0.00,WUHU216HW,2013-11-13 14:01:00,
2013-11-13 09:06:00,40.7,28.6,30.46,North,0,2.7,4.9,62,0.00,,,0.00,WUHU216HW,2013-11-13 14:06:00,
2013-11-13 09:11:00,40.9,28.4,30.46,NE,45,3.1,5.6,61,0.00,,,0.00,WUHU216HW,2013-11-13 14:11:00,
2013-11-13 09:16:00,41.2,28.5,30.45,ENE,68,4.0,7.6,60,0.00,,,0.00,WUHU216HW,2013-11-13 14:16:00,
2013-11-13 09:21:00,41.4,28.2,30.46,NE,45,2.5,7.6,59,0.00,,,0.00,WUHU216HW,2013-11-13 14:21:00,
2013-11-13 09:26:00,42.1,28.4,30.46,North,0,3.4,7.2,58,0.00,,,0.00,WUHU216HW,2013-11-13 14:26:00,
2013-11-13 09:31:00,42.5,27.8,30.46,NE,45,4.9,7.2,56,0.00,,,0.00,WUHU216HW,2013-11-13 14:31:00,
2013-11-13 09:36:00,43.9,29.6,30.45,NNE,23,2.5,4.9,57,0.00,,,0.00,WUHU216HW,2013-11-13 14:36:00,
2013-11-13 09:41:00,47.9,34.3,30.46,ENE,68,4.9,4.9,59,0.00,,,0.00,WUHU216HW,2013-11-13 14:41:00,
2013-11-13 09:46:00,51.5,34.4,30.46,NE,45,4.0,7.6,52,0.00,,,0.00,WUHU216HW,2013-11-13 14:46:00,
2013-11-13 09:51:00,52.6,32.2,30.46,NE,45,3.6,7.6,46,0.00,,,0.00,WUHU216HW,2013-11-13 14:51:00,
2013-11-13 09:56:00,53.5,33.0,30.46,NE,45,4.5,4.7,46,0.00,,,0.00,WUHU216HW,2013-11-13 14:56:00,
2013-11-13 10:01:00,53.8,32.9,30.46,ENE,68,3.8,4.5,45,0.00,,,0.00,WUHU216HW,2013-11-13 15:01:00,
2013-11-13 10:06:00,54.2,33.1,30.47,East,90,1.8,3.8,45,0.00,,,0.00,WUHU216HW,2013-11-13 15:06:00,
2013-11-13 10:11:00,55.8,34.7,30.47,NE,45,5.6,5.6,45,0.00,,,0.00,WUHU216HW,2013-11-13 15:11:00,
2013-11-13 10:16:00,56.3,32.3,30.47,ENE,68,5.6,5.6,40,0.00,,,0.00,WUHU216HW,2013-11-13 15:16:00,
2013-11-13 10:21:00,56.7,33.2,30.47,ENE,68,3.6,6.7,41,0.00,,,0.00,WUHU216HW,2013-11-13 15:21:00,
2013-11-13 10:26:00,57.2,33.7,30.48,ENE,68,4.9,6.7,41,0.00,,,0.00,WUHU216HW,2013-11-13 15:26:00,
2013-11-13 10:31:00,58.7,33.8,30.48,NE,45,5.8,6.0,39,0.00,,,0.00,WUHU216HW,2013-11-13 15:31:00,
2013-11-13 10:36:00,58.5,32.1,30.48,North,0,4.5,5.8,37,0.00,,,0.00,WUHU216HW,2013-11-13 15:36:00,
2013-11-13 10:41:00,58.3,32.7,30.48,NNE,23,2.2,4.7,38,0.00,,,0.00,WUHU216HW,2013-11-13 15:41:00,
2013-11-13 10:46:00,59.9,34.8,30.47,North,0,2.5,4.9,39,0.00,,,0.00,WUHU216HW,2013-11-13 15:46:00,
2013-11-13 10:51:00,61.4,33.9,30.47,NNE,23,3.8,4.9,36,0.00,,,0.00,WUHU216HW,2013-11-13 15:51:00,
2013-11-13 10:56:00,61.2,34.6,30.47,North,0,4.7,5.4,37,0.00,,,0.00,WUHU216HW,2013-11-13 15:56:00,
2013-11-13 11:01:00,62.3,33.3,30.47,East,90,3.1,5.4,34,0.00,,,0.00,WUHU216HW,2013-11-13 16:01:00,
2013-11-13 11:06:00,60.8,32.0,30.47,ENE,68,2.0,4.0,34,0.00,,,0.00,WUHU216HW,2013-11-13 16:06:00,
2013-11-13 11:11:00,61.4,32.5,30.47,NNE,23,2.9,5.1,34,0.00,,,0.00,WUHU216HW,2013-11-13 16:11:00,
2013-11-13 11:16:00,62.3,34.7,30.47,NE,45,6.0,6.0,36,0.00,,,0.00,WUHU216HW,2013-11-13 16:16:00,
2013-11-13 11:21:00,62.3,31.9,30.47,NNE,23,2.9,6.0,32,0.00,,,0.00,WUHU216HW,2013-11-13 16:21:00,
2013-11-13 11:26:00,61.7,30.7,30.47,NE,45,4.5,5.4,31,0.00,,,0.00,WUHU216HW,2013-11-13 16:26:00,
2013-11-13 11:31:00,62.1,33.2,30.47,ENE,68,3.8,5.1,34,0.00,,,0.00,WUHU216HW,2013-11-13 16:31:00,
2013-11-13 11:36:00,63.0,32.6,30.47,North,0,2.5,4.7,32,0.00,,,0.00,WUHU216HW,2013-11-13 16:36:00,
2013-11-13 11:41:00,63.0,32.6,30.47,East,90,2.5,4.0,32,0.00,,,0.00,WUHU216HW,2013-11-13 16:41:00,
2013-11-13 11:46:00,61.2,30.3,30.47,NE,45,2.9,4.0,31,0.00,,,0.00,WUHU216HW,2013-11-13 16:46:00,
2013-11-13 11:51:00,61.0,30.8,30.47,NE,45,2.0,4.0,32,0.00,,,0.00,WUHU216HW,2013-11-13 16:51:00,
2013-11-13 11:56:00,60.5,30.3,30.47,NE,45,2.5,5.4,32,0.00,,,0.00,WUHU216HW,2013-11-13 16:56:00,
2013-11-13 12:01:00,58.0,28.2,30.47,East,90,3.4,5.4,32,0.00,,,0.00,WUHU216HW,2013-11-13 17:01:00,
2013-11-13 12:06:00,55.8,29.0,30.46,NNE,23,2.5,4.9,36,0.00,,,0.00,WUHU216HW,2013-11-13 17:06:00,
2013-11-13 12:11:00,55.1,28.4,30.46,North,0,3.4,4.7,36,0.00,,,0.00,WUHU216HW,2013-11-13 17:11:00,
2013-11-13 12:16:00,54.9,28.3,30.46,ENE,68,5.4,5.4,36,0.00,,,0.00,WUHU216HW,2013-11-13 17:16:00,
2013-11-13 12:21:00,54.4,27.7,30.45,NE,45,8.5,8.5,36,0.00,,,0.00,WUHU216HW,2013-11-13 17:21:00,
2013-11-13 12:26:00,53.8,28.0,30.45,ENE,68,2.5,8.5,37,0.00,,,0.00,WUHU216HW,2013-11-13 17:26:00,
2013-11-13 12:31:00,53.3,27.6,30.45,North,0,3.4,3.6,37,0.00,,,0.00,WUHU216HW,2013-11-13 17:31:00,
2013-11-13 12:36:00,53.3,28.2,30.44,SE,135,1.1,5.1,38,0.00,,,0.00,WUHU216HW,2013-11-13 17:36:00,
2013-11-13 12:41:00,53.5,28.4,30.44,ENE,68,3.6,5.1,38,0.00,,,0.00,WUHU216HW,2013-11-13 17:41:00,
2013-11-13 12:46:00,53.5,27.6,30.44,ENE,68,3.4,4.3,37,0.00,,,0.00,WUHU216HW,2013-11-13 17:46:00,
2013-11-13 12:51:00,53.3,27.6,30.44,NE,45,4.9,6.3,37,0.00,,,0.00,WUHU216HW,2013-11-13 17:51:00,
2013-11-13 12:56:00,53.1,28.0,30.44,North,0,2.0,6.3,38,0.00,,,0.00,WUHU216HW,2013-11-13 17:56:00,
2013-11-13 13:01:00,53.3,27.6,30.44,ENE,68,2.0,3.1,37,0.00,,,0.00,WUHU216HW,2013-11-13 18:01:00,
2013-11-13 13:06:00,53.1,28.0,30.44,North,0,2.5,3.4,38,0.00,,,0.00,WUHU216HW,2013-11-13 18:06:00,
2013-11-13 13:11:00,53.1,28.0,30.44,NNE,23,4.0,4.0,38,0.00,,,0.00,WUHU216HW,2013-11-13 18:11:00,
2013-11-13 13:16:00,52.9,26.5,30.44,NNW,338,2.7,4.0,36,0.00,,,0.00,WUHU216HW,2013-11-13 18:16:00,
2013-11-13 13:21:00,52.9,27.2,30.43,NE,45,3.8,4.0,37,0.00,,,0.00,WUHU216HW,2013-11-13 18:21:00,
2013-11-13 13:26:00,52.9,26.5,30.43,NE,45,3.4,4.9,36,0.00,,,0.00,WUHU216HW,2013-11-13 18:26:00,
2013-11-13 13:31:00,52.4,24.7,30.43,NE,45,2.9,4.9,34,0.00,,,0.00,WUHU216HW,2013-11-13 18:31:00,
2013-11-13 13:36:00,52.2,25.8,30.43,NE,45,4.0,4.0,36,0.00,,,0.00,WUHU216HW,2013-11-13 18:36:00,
2013-11-13 13:41:00,52.4,26.0,30.43,ENE,68,4.7,6.0,36,0.00,,,0.00,WUHU216HW,2013-11-13 18:41:00,
2013-11-13 13:46:00,52.6,26.2,30.43,NE,45,4.9,6.0,36,0.00,,,0.00,WUHU216HW,2013-11-13 18:46:00,
2013-11-13 13:51:00,52.9,26.5,30.42,NE,45,3.4,4.9,36,0.00,,,0.00,WUHU216HW,2013-11-13 18:51:00,
2013-11-13 13:56:00,53.5,27.0,30.43,ENE,68,3.1,4.0,36,0.00,,,0.00,WUHU216HW,2013-11-13 18:56:00,
2013-11-13 14:01:00,53.6,27.2,30.42,NE,45,3.6,4.9,36,0.00,,,0.00,WUHU216HW,2013-11-13 19:01:00,
2013-11-13 14:06:00,54.0,27.5,30.42,North,0,3.1,4.9,36,0.00,,,0.00,WUHU216HW,2013-11-13 19:06:00,
2013-11-13 14:11:00,54.2,27.6,30.42,NE,45,4.5,5.4,36,0.00,,,0.00,WUHU216HW,2013-11-13 19:11:00,
2013-11-13 14:16:00,54.2,27.6,30.42,North,0,3.4,5.4,36,0.00,,,0.00,WUHU216HW,2013-11-13 19:16:00,
2013-11-13 14:21:00,54.4,27.7,30.42,NNE,23,1.8,3.4,36,0.00,,,0.00,WUHU216HW,2013-11-13 19:21:00,
2013-11-13 14:26:00,54.7,28.8,30.42,ENE,68,2.9,2.9,37,0.00,,,0.00,WUHU216HW,2013-11-13 19:26:00,
2013-11-13 14:31:00,54.9,28.3,30.42,North,0,4.0,4.7,36,0.00,,,0.00,WUHU216HW,2013-11-13 19:31:00,
2013-11-13 14:36:00,54.7,26.0,30.42,NE,45,2.0,4.7,33,0.00,,,0.00,WUHU216HW,2013-11-13 19:36:00,
2013-11-13 14:41:00,54.4,25.7,30.41,NNE,23,1.3,4.3,33,0.00,,,0.00,WUHU216HW,2013-11-13 19:41:00,
2013-11-13 14:46:00,53.8,25.9,30.41,NE,45,3.6,3.6,34,0.00,,,0.00,WUHU216HW,2013-11-13 19:46:00,
2013-11-13 14:51:00,53.8,25.9,30.41,ENE,68,1.1,4.0,34,0.00,,,0.00,WUHU216HW,2013-11-13 19:51:00,
2013-11-13 14:56:00,53.6,26.5,30.41,NE,45,5.8,5.8,35,0.00,,,0.00,WUHU216HW,2013-11-13 19:56:00,
2013-11-13 15:01:00,53.6,26.5,30.41,NE,45,2.9,5.8,35,0.00,,,0.00,WUHU216HW,2013-11-13 20:01:00,
2013-11-13 15:06:00,53.3,26.1,30.41,NE,45,2.5,5.4,35,0.00,,,0.00,WUHU216HW,2013-11-13 20:06:00,
2013-11-13 15:11:00,53.3,26.8,30.41,NE,45,3.4,4.7,36,0.00,,,0.00,WUHU216HW,2013-11-13 20:11:00,
2013-11-13 15:16:00,53.1,26.6,30.41,NNE,23,1.6,4.0,36,0.00,,,0.00,WUHU216HW,2013-11-13 20:16:00,
2013-11-13 15:21:00,53.1,27.4,30.41,North,0,1.3,2.9,37,0.00,,,0.00,WUHU216HW,2013-11-13 20:21:00,
2013-11-13 15:26:00,52.9,26.5,30.42,ENE,68,2.2,5.1,36,0.00,,,0.00,WUHU216HW,2013-11-13 20:26:00,
2013-11-13 15:31:00,52.7,27.0,30.42,NE,45,5.4,5.4,37,0.00,,,0.00,WUHU216HW,2013-11-13 20:31:00,
2013-11-13 15:37:00,52.7,27.0,30.42,NNE,23,1.8,5.4,37,0.00,,,0.00,WUHU216HW,2013-11-13 20:37:00,
2013-11-13 15:42:00,52.6,26.8,30.42,NE,45,1.8,3.4,37,0.00,,,0.00,WUHU216HW,2013-11-13 20:42:00,
2013-11-13 15:47:00,52.4,26.7,30.42,NE,45,3.1,3.4,37,0.00,,,0.00,WUHU216HW,2013-11-13 20:47:00,
2013-11-13 15:52:00,52.2,26.6,30.42,NE,45,2.2,3.8,37,0.00,,,0.00,WUHU216HW,2013-11-13 20:52:00,
2013-11-13 15:57:00,52.0,26.4,30.42,NNE,23,3.4,3.8,37,0.00,,,0.00,WUHU216HW,2013-11-13 20:57:00,
2013-11-13 16:02:00,51.8,26.2,30.42,North,0,1.6,4.0,37,0.00,,,0.00,WUHU216HW,2013-11-13 21:02:00,
2013-11-13 16:07:00,51.7,26.0,30.42,ENE,68,3.4,5.4,37,0.00,,,0.00,WUHU216HW,2013-11-13 21:07:00,
2013-11-13 16:12:00,51.7,26.7,30.42,NE,45,1.3,5.4,38,0.00,,,0.00,WUHU216HW,2013-11-13 21:12:00,
2013-11-13 16:17:00,51.5,26.6,30.42,NE,45,4.7,4.7,38,0.00,,,0.00,WUHU216HW,2013-11-13 21:17:00,
2013-11-13 16:22:00,51.5,26.6,30.42,NE,45,2.7,4.7,38,0.00,,,0.00,WUHU216HW,2013-11-13 21:22:00,
2013-11-13 16:27:00,51.3,27.1,30.42,NNE,23,1.1,3.8,39,0.00,,,0.00,WUHU216HW,2013-11-13 21:27:00,
2013-11-13 16:32:00,51.1,26.9,30.42,East,90,1.3,2.2,39,0.00,,,0.00,WUHU216HW,2013-11-13 21:32:00,
2013-11-13 16:37:00,50.8,26.7,30.42,NE,45,1.8,2.5,39,0.00,,,0.00,WUHU216HW,2013-11-13 21:37:00,
2013-11-13 16:42:00,50.8,26.7,30.42,NE,45,2.5,2.5,39,0.00,,,0.00,WUHU216HW,2013-11-13 21:42:00,
2013-11-13 16:47:00,50.6,26.5,30.42,NE,45,2.5,2.5,39,0.00,,,0.00,WUHU216HW,2013-11-13 21:47:00,
2013-11-13 16:52:00,50.4,27.0,30.42,NNE,23,1.3,2.5,40,0.00,,,0.00,WUHU216HW,2013-11-13 21:52:00,
2013-11-13 16:57:00,50.2,27.4,30.42,NNE,23,0.9,2.0,41,0.00,,,0.00,WUHU216HW,2013-11-13 21:57:00,
2013-11-13 17:02:00,50.0,27.2,30.42,NNE,23,0.7,1.1,41,0.00,,,0.00,WUHU216HW,2013-11-13 22:02:00,
2013-11-13 17:07:00,49.9,27.0,30.42,NE,45,0.9,1.6,41,0.00,,,0.00,WUHU216HW,2013-11-13 22:07:00,
2013-11-13 17:12:00,49.5,27.3,30.42,NE,45,0.4,1.6,42,0.00,,,0.00,WUHU216HW,2013-11-13 22:12:00,
2013-11-13 17:17:00,49.3,27.1,30.42,NE,45,0.7,1.6,42,0.00,,,0.00,WUHU216HW,2013-11-13 22:17:00,
2013-11-13 17:22:00,49.1,27.5,30.42,NE,45,0.2,1.1,43,0.00,,,0.00,WUHU216HW,2013-11-13 22:22:00,
2013-11-13 17:27:00,48.8,27.2,30.43,NE,45,0.0,1.1,43,0.00,,,0.00,WUHU216HW,2013-11-13 22:27:00,
2013-11-13 17:32:00,48.6,27.6,30.42,NE,45,0.0,0.7,44,0.00,,,0.00,WUHU216HW,2013-11-13 22:32:00,
2013-11-13 17:37:00,48.2,27.7,30.42,NE,45,0.0,0.7,45,0.00,,,0.00,WUHU216HW,2013-11-13 22:37:00,
2013-11-13 17:42:00,47.9,27.9,30.43,NE,45,0.4,0.4,46,0.00,,,0.00,WUHU216HW,2013-11-13 22:42:00,
2013-11-13 17:47:00,47.5,28.2,30.43,NE,45,0.0,0.7,47,0.00,,,0.00,WUHU216HW,2013-11-13 22:47:00,
2013-11-13 17:52:00,47.2,27.8,30.44,NE,45,0.0,0.7,47,0.00,,,0.00,WUHU216HW,2013-11-13 22:52:00,
2013-11-13 17:57:00,46.6,27.9,30.44,NE,45,0.0,0.4,48,0.00,,,0.00,WUHU216HW,2013-11-13 22:57:00,
2013-11-13 18:02:00,46.1,27.9,30.44,NE,45,0.0,0.4,49,0.00,,,0.00,WUHU216HW,2013-11-13 23:02:00,
2013-11-13 18:07:00,45.5,28.0,30.44,NE,45,0.0,0.4,50,0.00,,,0.00,WUHU216HW,2013-11-13 23:07:00,
2013-11-13 18:12:00,45.0,28.0,30.44,NE,45,0.0,0.2,51,0.00,,,0.00,WUHU216HW,2013-11-13 23:12:00,
2013-11-13 18:17:00,44.3,27.7,30.44,NE,45,0.0,0.2,52,0.00,,,0.00,WUHU216HW,2013-11-13 23:17:00,
2013-11-13 18:22:00,43.9,27.9,30.44,NE,45,0.4,0.4,53,0.00,,,0.00,WUHU216HW,2013-11-13 23:22:00,
2013-11-13 18:27:00,43.6,27.6,30.44,NE,45,0.4,1.1,53,0.00,,,0.00,WUHU216HW,2013-11-13 23:27:00,
2013-11-13 18:32:00,43.2,27.2,30.44,NE,45,0.0,1.1,53,0.00,,,0.00,WUHU216HW,2013-11-13 23:32:00,
2013-11-13 18:37:00,42.7,27.5,30.44,NE,45,0.0,0.2,55,0.00,,,0.00,WUHU216HW,2013-11-13 23:37:00,
2013-11-13 18:42:00,42.5,27.4,30.44,NE,45,0.0,0.0,55,0.00,,,0.00,WUHU216HW,2013-11-13 23:42:00,
2013-11-13 18:47:00,42.3,27.6,30.44,NE,45,0.0,0.0,56,0.00,,,0.00,WUHU216HW,2013-11-13 23:47:00,
2013-11-13 18:52:00,42.1,27.9,30.44,NE,45,0.0,0.0,57,0.00,,,0.00,WUHU216HW,2013-11-13 23:52:00,
2013-11-13 18:57:00,41.6,27.5,30.44,NE,45,0.0,0.0,57,0.00,,,0.00,WUHU216HW,2013-11-13 23:57:00,
2013-11-13 19:02:00,41.4,27.7,30.44,NE,45,0.0,0.0,58,0.00,,,0.00,WUHU216HW,2013-11-14 00:02:00,
2013-11-13 19:07:00,40.9,27.6,30.44,NE,45,0.2,0.4,59,0.00,,,0.00,WUHU216HW,2013-11-14 00:07:00,
2013-11-13 19:12:00,40.7,27.5,30.44,NE,45,0.0,0.4,59,0.00,,,0.00,WUHU216HW,2013-11-14 00:12:00,
2013-11-13 19:17:00,40.5,27.7,30.44,NE,45,0.0,0.0,60,0.00,,,0.00,WUHU216HW,2013-11-14 00:17:00,
2013-11-13 19:22:00,40.3,27.5,30.44,NE,45,0.0,0.0,60,0.00,,,0.00,WUHU216HW,2013-11-14 00:22:00,
2013-11-13 19:27:00,40.1,27.7,30.44,NE,45,0.0,0.0,61,0.00,,,0.00,WUHU216HW,2013-11-14 00:27:00,
2013-11-13 19:32:00,39.6,27.2,30.44,NE,45,0.4,0.4,61,0.00,,,0.00,WUHU216HW,2013-11-14 00:32:00,
2013-11-13 19:37:00,39.4,27.4,30.44,NE,45,0.0,0.4,62,0.00,,,0.00,WUHU216HW,2013-11-14 00:37:00,
2013-11-13 19:42:00,39.1,27.5,30.44,NE,45,0.0,0.4,63,0.00,,,0.00,WUHU216HW,2013-11-14 00:42:00,
2013-11-13 19:47:00,38.9,27.3,30.44,NE,45,0.0,0.2,63,0.00,,,0.00,WUHU216HW,2013-11-14 00:47:00,
2013-11-13 19:52:00,38.5,26.9,30.45,NE,45,0.0,0.4,63,0.00,,,0.00,WUHU216HW,2013-11-14 00:52:00,
2013-11-13 19:57:00,38.5,26.9,30.44,NE,45,0.0,0.4,63,0.00,,,0.00,WUHU216HW,2013-11-14 00:57:00,
2013-11-13 20:02:00,38.2,27.0,30.44,NE,45,0.0,0.0,64,0.00,,,0.00,WUHU216HW,2013-11-14 01:02:00,
2013-11-13 20:07:00,38.2,27.0,30.45,NE,45,0.0,0.0,64,0.00,,,0.00,WUHU216HW,2013-11-14 01:07:00,
2013-11-13 20:12:00,38.0,27.2,30.45,NE,45,0.0,0.0,65,0.00,,,0.00,WUHU216HW,2013-11-14 01:12:00,
2013-11-13 20:17:00,37.8,27.1,30.45,NE,45,0.2,0.2,65,0.00,,,0.00,WUHU216HW,2013-11-14 01:17:00,
2013-11-13 20:22:00,37.6,27.3,30.45,NE,45,0.0,0.4,66,0.00,,,0.00,WUHU216HW,2013-11-14 01:22:00,
2013-11-13 20:27:00,37.6,27.3,30.45,NE,45,0.0,0.4,66,0.00,,,0.00,WUHU216HW,2013-11-14 01:27:00,
2013-11-13 20:32:00,37.6,27.3,30.45,NE,45,0.0,0.0,66,0.00,,,0.00,WUHU216HW,2013-11-14 01:32:00,
2013-11-13 20:37:00,37.3,27.3,30.45,NE,45,0.0,0.2,67,0.00,,,0.00,WUHU216HW,2013-11-14 01:37:00,
2013-11-13 20:42:00,37.1,27.2,30.45,NE,45,0.0,0.2,67,0.00,,,0.00,WUHU216HW,2013-11-14 01:42:00,
2013-11-13 20:47:00,37.1,27.2,30.45,NE,45,0.4,0.7,67,0.00,,,0.00,WUHU216HW,2013-11-14 01:47:00,
2013-11-13 20:52:00,36.9,27.4,30.45,NE,45,0.0,0.7,68,0.00,,,0.00,WUHU216HW,2013-11-14 01:52:00,
2013-11-13 20:57:00,36.7,27.2,30.45,NE,45,0.0,0.7,68,0.00,,,0.00,WUHU216HW,2013-11-14 01:57:00,
2013-11-13 21:02:00,36.5,27.7,30.45,NNE,23,0.4,1.1,70,0.00,,,0.00,WUHU216HW,2013-11-14 02:02:00,
2013-11-13 21:07:00,36.7,27.6,30.45,WNW,293,0.4,1.1,69,0.00,,,0.00,WUHU216HW,2013-11-14 02:07:00,
2013-11-13 21:12:00,36.9,27.7,30.45,WNW,293,0.0,0.9,69,0.00,,,0.00,WUHU216HW,2013-11-14 02:12:00,
2013-11-13 21:17:00,36.7,27.6,30.45,WNW,293,0.0,0.0,69,0.00,,,0.00,WUHU216HW,2013-11-14 02:17:00,
2013-11-13 21:22:00,36.7,27.9,30.46,WNW,293,0.0,0.0,70,0.00,,,0.00,WUHU216HW,2013-11-14 02:22:00,
2013-11-13 21:27:00,36.5,27.7,30.46,WNW,293,0.0,0.0,70,0.00,,,0.00,WUHU216HW,2013-11-14 02:27:00,
2013-11-13 21:32:00,36.5,27.7,30.46,WNW,293,0.0,0.0,70,0.00,,,0.00,WUHU216HW,2013-11-14 02:32:00,
2013-11-13 21:37:00,36.4,27.5,30.46,WNW,293,0.0,0.0,70,0.00,,,0.00,WUHU216HW,2013-11-14 02:37:00,
2013-11-13 21:42:00,36.2,27.7,30.46,WNW,293,0.0,0.0,71,0.00,,,0.00,WUHU216HW,2013-11-14 02:42:00,
2013-11-13 21:47:00,36.0,27.6,30.46,WNW,293,0.4,0.9,71,0.00,,,0.00,WUHU216HW,2013-11-14 02:47:00,
2013-11-13 21:52:00,36.0,27.6,30.47,WNW,293,0.0,0.9,71,0.00,,,0.00,WUHU216HW,2013-11-14 02:52:00,
2013-11-13 21:57:00,35.6,27.2,30.47,WNW,293,0.0,0.4,71,0.00,,,0.00,WUHU216HW,2013-11-14 02:57:00,
2013-11-13 22:02:00,35.6,27.2,30.47,WNW,293,0.0,0.0,71,0.00,,,0.00,WUHU216HW,2013-11-14 03:02:00,
2013-11-13 22:07:00,35.3,26.8,30.47,WNW,293,0.0,0.0,71,0.00,,,0.00,WUHU216HW,2013-11-14 03:07:00,
2013-11-13 22:12:00,35.1,26.7,30.47,WNW,293,0.0,0.0,71,0.00,,,0.00,WUHU216HW,2013-11-14 03:12:00,
2013-11-13 22:17:00,34.9,26.5,30.47,WNW,293,0.0,0.0,71,0.00,,,0.00,WUHU216HW,2013-11-14 03:17:00,
2013-11-13 22:22:00,34.7,26.6,30.47,WNW,293,0.0,0.0,72,0.00,,,0.00,WUHU216HW,2013-11-14 03:22:00,
2013-11-13 22:27:00,34.7,26.6,30.47,WNW,293,0.4,0.4,72,0.00,,,0.00,WUHU216HW,2013-11-14 03:27:00,
2013-11-13 22:32:00,34.7,26.6,30.47,WNW,293,0.0,0.7,72,0.00,,,0.00,WUHU216HW,2013-11-14 03:32:00,
2013-11-13 22:37:00,34.7,26.9,30.46,WNW,293,0.0,0.7,73,0.00,,,0.00,WUHU216HW,2013-11-14 03:37:00,
2013-11-13 22:42:00,34.4,26.6,30.46,NW,315,0.0,0.2,73,0.00,,,0.00,WUHU216HW,2013-11-14 03:42:00,
2013-11-13 22:47:00,34.2,26.4,30.46,NW,315,0.0,0.2,73,0.00,,,0.00,WUHU216HW,2013-11-14 03:47:00,
2013-11-13 22:52:00,34.4,26.6,30.46,NW,315,0.0,0.0,73,0.00,,,0.00,WUHU216HW,2013-11-14 03:52:00,
2013-11-13 22:57:00,34.6,26.7,30.46,NW,315,0.0,0.0,73,0.00,,,0.00,WUHU216HW,2013-11-14 03:57:00,
2013-11-13 23:02:00,34.6,26.7,30.46,NW,315,0.0,0.0,73,0.00,,,0.00,WUHU216HW,2013-11-14 04:02:00,
2013-11-13 23:07:00,34.4,26.6,30.46,NW,315,0.0,0.0,73,0.00,,,0.00,WUHU216HW,2013-11-14 04:07:00,
2013-11-13 23:12:00,34.0,26.2,30.46,NW,315,0.0,0.0,73,0.00,,,0.00,WUHU216HW,2013-11-14 04:12:00,
2013-11-13 23:17:00,33.8,26.3,30.45,NW,315,0.0,0.0,74,0.00,,,0.00,WUHU216HW,2013-11-14 04:17:00,
2013-11-13 23:22:00,33.8,26.3,30.45,NW,315,0.0,0.0,74,0.00,,,0.00,WUHU216HW,2013-11-14 04:22:00,
2013-11-13 23:27:00,34.0,26.5,30.45,NW,315,0.0,0.0,74,0.00,,,0.00,WUHU216HW,2013-11-14 04:27:00,
2013-11-13 23:32:00,34.2,26.6,30.45,NW,315,0.0,0.0,74,0.00,,,0.00,WUHU216HW,2013-11-14 04:32:00,
2013-11-13 23:37:00,34.4,27.2,30.45,NW,315,0.0,0.0,75,0.00,,,0.00,WUHU216HW,2013-11-14 04:37:00,
2013-11-13 23:42:00,34.4,27.2,30.45,North,0,0.4,0.9,75,0.00,,,0.00,WUHU216HW,2013-11-14 04:42:00,
2013-11-13 23:47:00,34.4,27.2,30.45,North,0,0.0,1.3,75,0.00,,,0.00,WUHU216HW,2013-11-14 04:47:00,
2013-11-13 23:52:00,34.6,27.0,30.45,North,0,0.7,1.3,74,0.00,,,0.00,WUHU216HW,2013-11-14 04:52:00,
2013-11-13 23:57:00,34.4,26.8,30.45,NNW,338,0.2,0.9,74,0.00,,,0.00,WUHU216HW,2013-11-14 04:57:00,